Current weather by "City, St" or "zip code"  
 
Advertise Here

Current Conditions: Buckeye Municipal Airport, AZ

NULL


86.0 F

Last Updated on Jul 26 2021, 10:55 pm MST
Humidity: 62%
Wind Speed: N 4.6 mph
Barometer 29.92 in
Dewpoint: 71.6 F
Visibility: 10.00 mi
Precip: --
Heat Index: 92 F
Wind Chill: NA
Current conditions at:

Buckeye Municipal Airport, AZ (KBXK)

Lat: 33.4204 Lon: 112.6862

Local Radar Image active severe weather and emergency alerts image image weather storm and storm spotter reports image weather observation monitoring service image
Local
Radar
Active
Alerts
Storm Reports Obs
Monitoring

Sign-up For Email & Text Message Weather Alert Notification Services


Advertise Here

Observation History for Buckeye Municipal Airport, AZ


Time Wind
(mph)
Vis
(mi)
Weather Precip (in) Temperature (F) Relative
Humidity
Wind
Chill
(F)
Heat
Index
(F)
Pressure
Air Dwpt altimeter
(in)
sea level
(mb)
Rmks
10:55 pm MST N 4.6 10.00 NULL -- 86.0 71.6 62% NA 92 29.92 M
9:55 pm MST N 0.0 10.00 NULL -- 88.0 73.4 62% NA 96 29.92 M
8:55 pm MST NE 3.5 10.00 NULL -- 88.0 69.8 55% NA 93 29.90 M
7:55 pm MST N 0.0 10.00 NULL -- 91.0 68.0 46% NA 95 29.88 M
6:55 pm MST N 0.0 10.00 NULL -- 93.0 64.4 39% NA 95 29.87 M
5:55 pm MST N 0.0 10.00 NULL -- 95.0 64.4 36% NA 97 29.86 M
4:55 pm MST SE 3.5 10.00 NULL -- 95.0 64.4 36% NA 97 29.88 M
3:55 pm MST N 0.0 10.00 NULL -- 95.0 62.6 34% NA 96 29.89 M
2:55 pm MST E 5.8 10.00 NULL -- 93.0 64.4 39% NA 95 29.92 M
1:55 pm MST N 0.0 10.00 NULL -- 93.0 64.4 39% NA 95 29.94 M
12:55 pm MST E 8.1 10.00 NULL -- 91.0 68.0 46% NA 95 29.96 M
11:55 am MST E 10.4 10.00 NULL -- 90.0 68.0 49% NA 94 29.97 M
10:55 am MST E 13.8 10.00 NULL -- 88.0 69.8 55% NA 93 29.98 M
9:55 am MST E 16.1 10.00 NULL -- 86.0 69.8 59% NA 91 29.98 M
8:55 am MST E 13.8 10.00 NULL -- 84.0 71.6 66% NA 89 29.98 M
7:55 am MST E 8.1 10.00 NULL -- 81.0 69.8 70% NA 85 29.97 M
6:55 am MST N 0.0 9.00 NULL -- 77.0 71.6 83% NA NA 29.97 M
5:55 am MST N 0.0 10.00 NULL -- 75.0 71.6 89% NA NA 29.95 M
4:55 am MST E 5.8 10.00 NULL -- 77.0 69.8 79% NA NA 29.95 M
3:55 am MST NE 5.8 10.00 NULL -- 77.0 69.8 79% NA NA 29.95 M
2:55 am MST E 6.9 10.00 NULL -- 77.0 69.8 79% NA NA 29.93 M
1:55 am MST E 11.5 10.00 NULL -- 79.0 69.8 74% NA NA 29.93 M
12:55 am MST E 10.4 10.00 NULL -- 79.0 71.6 79% NA NA 29.94 M
11:55 pm MST E 11.5 10.00 NULL -- 79.0 71.6 79% NA NA 29.94 M

Regional Weather Observation


Luke Air Force Base / Phoenix, AZ (KLUF)

Fair
86.0 F

Goodyear Municipal, AZ (KGYR)

A Few Clouds
91.0 F

Glendale, Glendale Municipal Airport, AZ (KGEU)

A Few Clouds
93.0 F

Phoenix, Phoenix-Deer Valley Municipal Airport, AZ (KDVT)

Fair
85.0 F

Phoenix, Phoenix Sky Harbor International Airport, AZ (KPHX)

A Few Clouds
92.0 F

Gila Bend Air Force Auxiliary Field, AZ (KGXF)

A Few Clouds
91.0 F
Advertise Here

Advertise Here